User: anonymous   Login
Location: Muenchen
(48.1800°N, 11.5800°E)
Time: 07:17:43
(UTC+01:00)
Language:

Cosmos 2233 Rocket - Orbit

View from above orbital plane
View from above orbital plane
View from above satellite
View from above satellite

Ground track
Ground track

The orbit data is extracted from the following two-line orbital elements,

1 22488U 93008B   17081.78852797 +.00000067 +00000-0 +51000-4 0  9997
2 22488 082.9432 142.7441 0026926 106.7396 018.5205 13.77707958212363
Epoch (UTC): 22 March 2017 18:55:28
Eccentricity: 0.0026926
inclination: 82.9432°
perigee height: 952 km
apogee height: 992 km
right ascension of ascending node: 142.7441°
argument of perigee: 106.7396°
revolutions per day: 13.77707958
mean anomaly at epoch: 18.5205°
orbit number at epoch: 21236

The dashed part of the orbit path shows where the satellite is in the earth's shadow,  

DLR